| time (UTC) | temp F | wind direction | speed MPH | gust MPH | rain 1hr in | rain 24hr in | rain mn in | humidity % | barometer mb |
| 20260507130039 | 44 | 134 | 0.0 | 3.0 | 0.00 | 0.00 | 0.00 | 59 | 1018.1 |
| 20260507124515 | 44 | 108 | 2.0 | 3.0 | 0.00 | 0.00 | 0.00 | 60 | 1018.1 |
| 20260507123018 | 44 | 211 | 0.0 | 1.0 | 0.00 | 0.00 | 0.00 | 62 | 1018.2 |
| 20260507121524 | 45 | 165 | 1.0 | 5.0 | 0.00 | 0.00 | 0.00 | 62 | 1018.1 |
| 20260507120008 | 45 | 115 | 3.0 | 9.0 | 0.00 | 0.00 | 0.00 | 62 | 1018.2 |
| 20260507114514 | 48 | 91 | 4.0 | 9.0 | 0.00 | 0.00 | 0.00 | 52 | 1018.1 |
| 20260507113015 | 46 | 57 | 2.0 | 3.0 | 0.00 | 0.00 | 0.00 | 55 | 1018.7 |
| 20260507111520 | 47 | 149 | 0.0 | 2.0 | 0.00 | 0.00 | 0.00 | 55 | 1018.6 |
| 20260507110026 | 47 | 122 | 0.0 | 2.0 | 0.00 | 0.00 | 0.00 | 54 | 1018.6 |
| 20260507104508 | 48 | 153 | 0.0 | 1.0 | 0.00 | 0.00 | 0.00 | 50 | 1018.4 |
| 20260507103016 | 49 | 158 | 0.0 | 2.0 | 0.00 | 0.00 | 0.00 | 50 | 1018.5 |
| 20260507101516 | 49 | 146 | 0.0 | 2.0 | 0.00 | 0.00 | 0.00 | 48 | 1018.5 |
| 20260507100025 | 49 | 129 | 1.0 | 4.0 | 0.00 | 0.00 | 0.00 | 49 | 1018.2 |
| 20260507094525 | 49 | 147 | 0.0 | 1.0 | 0.00 | 0.00 | 0.00 | 49 | 1018.1 |
| 20260507093010 | 50 | 99 | 1.0 | 2.0 | 0.00 | 0.00 | 0.00 | 47 | 1018.0 |
| 20260507091522 | 51 | 65 | 0.0 | 1.0 | 0.00 | 0.00 | 0.00 | 47 | 1018.0 |
| 20260507090017 | 52 | 72 | 1.0 | 3.0 | 0.00 | 0.00 | 0.00 | 45 | 1017.8 |
| 20260507084521 | 51 | 108 | 1.0 | 4.0 | 0.00 | 0.00 | 0.00 | 46 | 1017.5 |
| 20260507083025 | 51 | 139 | 1.0 | 3.0 | 0.00 | 0.00 | 0.00 | 47 | 1017.7 |
| 20260507081517 | 52 | 148 | 2.0 | 7.0 | 0.00 | 0.00 | 0.00 | 44 | 1017.5 |
| 20260507080015 | 52 | 226 | 2.0 | 8.0 | 0.00 | 0.00 | 0.00 | 44 | 1017.6 |
| 20260507074520 | 52 | 112 | 2.0 | 7.0 | 0.00 | 0.00 | 0.00 | 44 | 1017.4 |
| 20260507073022 | 53 | 145 | 3.0 | 7.0 | 0.00 | 0.00 | 0.00 | 43 | 1017.4 |
| 20260507071532 | 53 | 160 | 3.0 | 6.0 | 0.00 | 0.00 | 0.00 | 44 | 1017.7 |
| 20260507070025 | 53 | 98 | 2.0 | 6.0 | 0.00 | 0.00 | 0.00 | 43 | 1017.7 |
| 20260507064528 | 54 | 77 | 2.0 | 8.0 | 0.00 | 0.00 | 0.00 | 43 | 1017.8 |
| 20260507063020 | 54 | 140 | 1.0 | 7.0 | 0.00 | 0.00 | 0.00 | 42 | 1017.9 |
| 20260507061524 | 54 | 84 | 2.0 | 6.0 | 0.00 | 0.00 | 0.00 | 42 | 1018.2 |
| 20260507060016 | 53 | 95 | 1.0 | 5.0 | 0.00 | 0.00 | 0.00 | 43 | 1018.3 |
| 20260507054516 | 53 | 159 | 0.0 | 6.0 | 0.00 | 0.00 | 0.00 | 43 | 1018.4 |
| 20260507053020 | 53 | 68 | 1.0 | 4.0 | 0.00 | 0.00 | 0.00 | 42 | 1018.4 |
| 20260507051525 | 51 | 69 | 1.0 | 3.0 | 0.00 | 0.00 | 0.00 | 44 | 1018.4 |
| 20260507050038 | 51 | 103 | 2.0 | 3.0 | 0.00 | 0.00 | 0.00 | 44 | 1018.6 |
| 20260507044514 | 53 | 49 | 6.0 | 8.0 | 0.00 | 0.00 | 0.00 | 40 | 1018.6 |
| 20260507043030 | 53 | 84 | 1.0 | 5.0 | 0.00 | 0.00 | 0.00 | 40 | 1018.7 |
| 20260507041526 | 51 | 64 | 2.0 | 4.0 | 0.00 | 0.00 | 0.00 | 41 | 1019.0 |
| 20260507040030 | 52 | 199 | 0.0 | 6.0 | 0.00 | 0.00 | 0.00 | 40 | 1019.0 |
| 20260507034524 | 50 | 120 | 1.0 | 3.0 | 0.00 | 0.00 | 0.00 | 42 | 1019.1 |
| 20260507033012 | 50 | 109 | 0.0 | 3.0 | 0.00 | 0.00 | 0.00 | 44 | 1019.0 |
| 20260507031522 | 51 | 39 | 2.0 | 4.0 | 0.00 | 0.00 | 0.00 | 41 | 1018.7 |
| 20260507030035 | 52 | 176 | 0.0 | 6.0 | 0.00 | 0.00 | 0.00 | 39 | 1018.7 |
| 20260507024529 | 52 | 48 | 3.0 | 7.0 | 0.00 | 0.00 | 0.00 | 37 | 1018.6 |
| 20260507023009 | 54 | 53 | 0.0 | 2.0 | 0.00 | 0.00 | 0.00 | 36 | 1018.6 |
| 20260507021514 | 53 | 105 | 2.0 | 3.0 | 0.00 | 0.00 | 0.00 | 35 | 1018.6 |
| 20260507020022 | 54 | 65 | 1.0 | 3.0 | 0.00 | 0.00 | 0.00 | 35 | 1018.8 |
| 20260507014524 | 54 | 13 | 1.0 | 4.0 | 0.00 | 0.00 | 0.00 | 35 | 1018.8 |
| 20260507013027 | 54 | 311 | 1.0 | 4.0 | 0.00 | 0.00 | 0.00 | 35 | 1018.8 |
| 20260507011512 | 55 | 289 | 2.0 | 10.0 | 0.00 | 0.00 | 0.00 | 34 | 1018.7 |
| 20260507010023 | 57 | 338 | 2.0 | 7.0 | 0.00 | 0.00 | 0.00 | 33 | 1018.6 |
| 20260507004529 | 57 | 295 | 2.0 | 5.0 | 0.00 | 0.00 | 0.00 | 33 | 1018.7 |
| 20260507003026 | 57 | 321 | 3.0 | 10.0 | 0.00 | 0.00 | 0.00 | 33 | 1018.5 |
| 20260507001528 | 57 | 290 | 6.0 | 10.0 | 0.00 | 0.00 | 0.00 | 32 | 1018.5 |
| 20260507000016 | 58 | 319 | 5.0 | 10.0 | 0.00 | 0.00 | 0.00 | 30 | 1018.3 |
| 20260506234527 | 59 | 305 | 8.0 | 13.0 | 0.00 | 0.00 | 0.00 | 29 | 1018.2 |
| 20260506233025 | 58 | 316 | 5.0 | 12.0 | 0.00 | 0.00 | 0.00 | 29 | 1018.1 |
| 20260506231527 | 58 | 32 | 7.0 | 16.0 | 0.00 | 0.00 | 0.00 | 27 | 1018.1 |
| 20260506230029 | 58 | 306 | 5.0 | 13.0 | 0.00 | 0.00 | 0.00 | 28 | 1018.2 |
| 20260506224516 | 57 | 52 | 8.0 | 13.0 | 0.00 | 0.00 | 0.00 | 26 | 1018.2 |
| 20260506223022 | 57 | 313 | 7.0 | 15.0 | 0.00 | 0.00 | 0.00 | 25 | 1018.5 |
| 20260506221526 | 57 | 311 | 6.0 | 17.0 | 0.00 | 0.00 | 0.00 | 24 | 1018.7 |
| 20260506220034 | 56 | 327 | 5.0 | 13.0 | 0.00 | 0.00 | 0.00 | 23 | 1018.7 |
| 20260506214527 | 56 | 286 | 4.0 | 11.0 | 0.00 | 0.00 | 0.00 | 24 | 1018.9 |
| 20260506213021 | 55 | 289 | 9.0 | 18.0 | 0.00 | 0.00 | 0.00 | 25 | 1019.2 |
| 20260506211529 | 54 | 18 | 4.0 | 16.0 | 0.00 | 0.00 | 0.00 | 25 | 1018.9 |
| 20260506210009 | 54 | 287 | 6.0 | 12.0 | 0.00 | 0.00 | 0.00 | 26 | 1019.1 |
| 20260506204504 | 53 | 290 | 3.0 | 9.0 | 0.00 | 0.00 | 0.00 | 26 | 1018.9 |
| 20260506203007 | 54 | 290 | 4.0 | 9.0 | 0.00 | 0.00 | 0.00 | 25 | 1018.9 |
| 20260506201513 | 53 | 248 | 5.0 | 11.0 | 0.00 | 0.00 | 0.00 | 26 | 1018.9 |
| 20260506200009 | 52 | 285 | 1.0 | 8.0 | 0.00 | 0.00 | 0.00 | 26 | 1018.9 |
| 20260506194508 | 51 | 118 | 1.0 | 8.0 | 0.00 | 0.00 | 0.00 | 26 | 1019.2 |
| 20260506193004 | 51 | 297 | 4.0 | 8.0 | 0.00 | 0.00 | 0.00 | 27 | 1019.5 |
| 20260506191506 | 50 | 23 | 2.0 | 10.0 | 0.00 | 0.00 | 0.00 | 25 | 1019.5 |
| 20260506190012 | 50 | 344 | 3.0 | 7.0 | 0.00 | 0.00 | 0.00 | 24 | 1019.6 |
| 20260506184520 | 49 | 49 | 2.0 | 7.0 | 0.00 | 0.00 | 0.00 | 24 | 1019.5 |
| 20260506183006 | 48 | 210 | 0.0 | 10.0 | 0.00 | 0.00 | 0.00 | 30 | 1019.6 |
| 20260506181515 | 47 | 279 | 1.0 | 8.0 | 0.00 | 0.00 | 0.00 | 27 | 1019.7 |
| 20260506180023 | 46 | 261 | 1.0 | 7.0 | 0.00 | 0.00 | 0.00 | 27 | 1019.7 |
| 20260506174522 | 45 | 168 | 2.0 | 8.0 | 0.00 | 0.00 | 0.00 | 24 | 1019.9 |
| 20260506173008 | 44 | 282 | 3.0 | 5.0 | 0.00 | 0.00 | 0.00 | 25 | 1020.1 |
| 20260506171515 | 44 | 349 | 1.0 | 4.0 | 0.00 | 0.00 | 0.00 | 28 | 1020.3 |
| 20260506170012 | 43 | 233 | 2.0 | 6.0 | 0.00 | 0.00 | 0.00 | 32 | 1020.5 |
| 20260506164510 | 43 | 213 | 2.0 | 6.0 | 0.00 | 0.00 | 0.00 | 34 | 1020.5 |
| 20260506163010 | 42 | 219 | 1.0 | 6.0 | 0.00 | 0.00 | 0.00 | 36 | 1020.6 |
| 20260506161510 | 41 | 60 | 1.0 | 6.0 | 0.00 | 0.00 | 0.00 | 37 | 1020.7 |
| 20260506160018 | 39 | 51 | 2.0 | 5.0 | 0.00 | 0.00 | 0.00 | 43 | 1020.9 |
| 20260506154521 | 38 | 110 | 1.0 | 4.0 | 0.00 | 0.00 | 0.00 | 44 | 1021.1 |
| 20260506153011 | 37 | 51 | 0.0 | 2.0 | 0.00 | 0.00 | 0.00 | 48 | 1021.1 |
| 20260506151511 | 36 | 129 | 1.0 | 2.0 | 0.00 | 0.00 | 0.00 | 51 | 1021.1 |
| 20260506150010 | 34 | 89 | 0.0 | 3.0 | 0.00 | 0.00 | 0.00 | 55 | 1021.1 |
| 20260506144516 | 30 | 115 | 1.0 | 2.0 | 0.00 | 0.00 | 0.00 | 65 | 1021.0 |
| 20260506143011 | 26 | 105 | 0.0 | 0.0 | 0.00 | 0.00 | 0.00 | 69 | 1021.1 |
| 20260506141512 | 26 | 157 | 0.0 | 0.0 | 0.00 | 0.00 | 0.00 | 71 | 1021.1 |
| 20260506140018 | 25 | 157 | 0.0 | 0.0 | 0.00 | 0.00 | 0.00 | 72 | 1021.1 |
| 20260506134514 | 25 | 157 | 0.0 | 0.0 | 0.00 | 0.00 | 0.00 | 73 | 1020.9 |
| 20260506133025 | 24 | 89 | 0.0 | 0.0 | 0.00 | 0.00 | 0.00 | 72 | 1020.9 |
| 20260506131516 | 24 | 89 | 0.0 | 0.0 | 0.00 | 0.00 | 0.00 | 72 | 1020.7 |